Retour au catalogue

STARLINK-4423

ActifCommunicationsSSO
NORAD 53209·PAYLOAD·🇺🇸 United States

Lancé Jul 22, 2022 depuis Vandenberg Space Force Base

Loading…

Prochains Passages (prochaines 24 heures)

TLE

FraisSource: CelesTrak SupGP

Époque: Sep 15, 2026, 02:30 UTC

1 53209C 22084W   26258.10465278  .00052868  00000+0  16415-2 0  2586
2 53209  97.2831 312.9530 0001077  98.1036 170.1248 15.33405798    15

Suivez STARLINK-4423 en temps réel avec AllMySat

Download on the App Store